Lid_Strength_Index
15 14 13 13 12 11 14 13 14 13 14 12 11 10 8 6 6 6 6 5 5 5 5 5 4 3 3 2 2 2 2 2 2 2 1 1 1 1 1 1 1 2 3 3
16 13 13 13 12 12 12 11 13 13 14 11 10 10 9 8 7 6 6 6 6 5 4 4 3 3 3 3 3 2 2 3 2 2 2 2 2 1 1 1 1 2 2 3
19 15 14 15 13 12 11 11 11 13 13 11 11 11 10 9 7 6 6 5 7 7 5 4 3 3 3 3 2 2 3 2 2 2 2 2 2 2 2 2 1 2 2 2
19 17 19 13 10 9 11 11 11 11 11 10 9 9 8 8 7 6 6 7 7 6 6 4 3 3 2 2 2 3 3 3 2 2 2 2 2 2 2 2 2 2 2 2
19 18 15 12 11 11 12 12 10 10 9 10 9 8 9 6 6 5 6 6 6 5 5 4 3 2 3 3 3 3 3 3 2 2 2 2 2 2 2 2 2 2 2 2
17 19 18 13 9 7 8 13 9 9 9 9 9 11 9 6 5 6 8 6 6 5 4 4 4 3 3 3 3 3 3 3 2 2 2 2 2 2 2 2 2 2 2 2
16 16 15 10 9 8 13 12 8 7 8 10 10 9 8 5 6 5 5 5 7 6 4 3 4 3 3 3 4 3 2 2 2 2 2 2 2 2 2 2 2 2 2 2
15 16 18 9 9 14 11 8 8 7 7 7 7 6 6 5 6 6 5 5 5 7 7 5 3 3 3 4 3 2 2 2 2 2 2 2 2 2 2 2 3 3 3 2
12 13 10 9 8 7 7 8 8 7 7 7 7 7 7 7 6 6 5 5 4 5 5 4 4 3 4 3 2 2 3 3 3 2 2 2 2 3 3 2 3 3 3 3
12 10 9 8 7 7 7 7 7 6 7 6 7 7 7 6 6 6 5 5 4 4 5 4 3 3 3 3 3 3 3 3 3 3 3 2 2 2 3 3 3 3 4 3
11 10 8 8 7 8 7 7 7 7 7 7 6 7 6 6 6 5 5 5 5 4 4 4 4 4 4 3 4 4 3 3 3 3 3 6 11 6 2 6 3 4 3 3
13 9 9 9 7 7 8 9 9 8 8 8 8 8 7 6 6 5 5 5 4 4 4 4 4 4 4 4 4 3 4 5 7 7 7 8 8 10 14 12 12 12 10 6
9 7 7 6 6 6 8 7 7 7 7 7 6 6 6 6 6 6 5 5 4 4 4 3 4 3 3 4 5 5 7 7 7 7 6 6 7 7 6 9 12 13 13 11
6 6 8 7 7 6 6 6 7 6 6 6 6 5 5 5 5 5 5 4 4 4 4 4 3 3 3 3 2 3 3 6 3 3 3 5 5 5 4 4 4 7 12 12
6 6 6 6 5 5 5 5 6 6 7 7 6 7 6 5 5 4 4 4 4 4 4 5 4 4 2 3 3 3 3 3 3 3 3 3 3 3 3 3 3 7 10 12
6 6 6 6 6 6 6 6 6 6 5 6 7 7 8 7 6 6 5 5 5 6 5 6 6 5 5 4 3 3 3 5 4 4 4 3 3 4 5 6 7 6 6 9
8 8 7 7 6 6 6 5 5 6 6 5 5 6 7 7 7 7 7 7 7 6 6 5 6 5 5 5 5 4 4 3 4 3 4 4 4 5 6 6 6 6 6 8
5 5 5 5 6 6 6 5 5 5 5 4 4 4 5 7 7 6 5 5 6 6 6 5 5 5 5 5 5 5 5 5 4 4 5 5 5 6 6 6 6 6 8 10
5 5 5 5 5 5 5 5 4 4 4 4 4 5 4 5 4 4 4 4 4 5 5 5 4 5 5 3 4 4 5 5 5 5 5 5 4 4 5 6 6 6 7 8
5 4 4 4 4 4 5 5 5 4 4 4 4 4 4 4 4 4 4 4 4 4 4 4 4 4 4 4 3 4 4 4 4 5 5 5 4 4 4 6 5 6 6 7
5 5 5 5 6 5 5 6 5 4 4 4 5 5 5 5 5 5 6 6 5 7 7 6 6 6 5 4 3 2 3 3 3 3 4 4 4 4 4 3 3 4 4 6
6 6 7 7 7 6 6 5 5 5 4 4 4 4 5 6 6 7 8 9 8 7 8 7 6 5 6 4 5 2 2 2 3 3 4 3 4 3 3 3 3 3 3 4
9 9 9 8 7 7 6 6 6 6 5 5 5 5 5 6 6 6 7 6 7 6 6 7 6 6 5 6 5 6 4 3 3 2 3 4 4 4 3 4 4 4 4 5
9 9 9 9 8 9 9 7 7 7 6 5 5 6 5 6 6 6 6 6 6 6 6 6 6 5 5 5 5 4 4 5 6 6 4 7 6 5 5 4 4 4 4 5
8 8 8 9 9 9 9 8 8 8 7 7 7 7 6 7 7 8 7 7 7 7 7 6 5 5 5 5 4 4 4 4 4 4 4 6 7 7 7 8 8 7 7 6
9 9 8 9 9 8 7 7 8 8 7 8 8 8 8 7 7 7 8 8 9 8 9 9 8 9 8 7 6 4 4 4 4 4 4 3 4 4 5 5 6 6 6 6
8 8 8 8 8 8 8 8 8 9 8 8 8 8 7 7 7 7 8 8 8 8 9 9 9 8 9 8 7 7 6 4 6 4 4 4 4 4 5 5 6 6 6 7